カタログに戻る

STARLINK-36315

運用中通信SSO
NORAD 67731·PAYLOAD·🇺🇸 United States

打ち上げ Feb 11, 2026 から Vandenberg Space Force Base

Loading…

次のパス (今後24時間)

TLE

最新Source: CelesTrak SupGP

元期: Sep 15, 2026, 04:10 UTC

1 67731C 26026L   26258.17409722 -.00026759  00000+0 -83069-3 0  2582
2 67731  97.2847 310.0732 0000831  91.0378 273.0218 15.33452119    17

AllMySatでSTARLINK-36315をリアルタイム追跡

Download on the App Store